SCP
0 0 0 0 0 0 0 0 0 0 0 0 0 0 0 0 0 0 0 0 0 0
0 0 0 0 0 0 0 0 0 0 0 0 0 0 0 0 0 0 0 0 0 0
0 0 0 0 0 0 0 0 0 0 0 0 0 0 0 0 0 0 0 0 0 0
0 0 0 0 0 0 0 0 0 0 0 0 0 0 0 0 0 0 0 0 0 0
0 0 0 0 0 0 0 0 0 0 0 0 0 0 0 0 0 0 0 0 0 0
0 0 0 0 0 0 0 0 0 0 0 0 0 0 0 0 0 0 0 0 0 0
0 0 0 0 0 0 0 0 0 0 0 0 0 0 0 0 0 0 0 0 0 0
0 0 0 0 0 0 0 0 0 0 0 0 0 0 0 0 0 0 0 0 0 0
0 0 0 0 0 0 0 0 0 0 0 0 0 0 0 0 0 0 0 0 0 0
0 0 0 0 0 0 0 0 0 0 0 0 0 0 0 0 0 0 0 0 0 0
0 0 0 0 0 0 0 0 0 0 0 0 0 0 0 0 0 0 0 0 0 0
0 0 0 0 0 0 0 0 0 0 0 0 0 0 0 0 0 0 0 0 0 0
0 0 0 0 0 0 0 0 0 0 0 0 0 0 0 0 0 0 0 0 0 0
0 0 0 0 0 0 0 0 0 0 0 0 0 0 0 0 0 0 0 0 0 0
Wind_Speed_500mb
62 66 68 67 66 65 64 62 61 57 54 52 52 48 45 46 49 47 46 44 45 42
60 60 59 57 57 58 58 60 60 55 50 49 48 47 47 46 46 47 48 46 44 37
47 47 49 51 53 52 49 46 46 46 46 44 43 41 41 44 43 46 43 44 44 43
40 42 43 42 39 37 36 36 38 37 33 34 37 44 48 41 47 46 45 47 41 38
34 33 33 33 33 33 33 34 32 30 35 39 42 43 42 43 46 46 43 38 36 33
32 32 32 33 34 35 36 37 38 40 43 45 45 45 45 48 46 41 38 36 35 32
33 32 32 33 35 36 38 41 43 43 45 47 48 49 48 45 43 42 40 38 36 32
36 35 35 37 39 41 43 45 46 47 46 48 49 49 47 45 44 42 40 37 34 31
47 46 44 44 46 47 50 53 53 52 50 50 50 50 48 45 43 42 39 36 34 30
55 54 52 51 54 56 56 55 54 52 52 52 50 49 47 45 43 42 40 38 34 29
66 64 64 64 63 61 59 57 55 53 53 54 54 52 50 48 47 46 43 38 34 32
77 76 74 72 69 67 63 61 60 58 58 58 57 55 54 53 53 49 46 42 39 37
74 79 81 79 74 69 66 64 64 63 62 60 59 57 56 56 54 52 49 44 40 38
67 74 79 79 75 72 71 70 70 69 67 66 63 59 58 58 57 53 49 46 43 38
Wind_Direction_500mb
234 236 240 244 247 247 250 253 254 253 256 249 246 246 244 242 244 246 256 264 270 263
232 235 240 243 246 250 250 252 255 253 247 243 242 240 244 248 245 253 257 262 271 251
232 236 241 244 248 250 250 248 246 243 241 241 235 241 248 247 249 251 255 261 262 251
235 237 241 243 244 244 241 239 236 238 235 238 243 243 254 248 247 248 254 259 245 247
239 236 240 240 238 238 238 236 235 228 230 233 242 243 238 243 246 247 246 241 238 238
240 241 238 237 238 237 235 230 228 228 233 234 236 240 244 243 242 236 231 228 226 228
245 244 244 243 242 240 237 234 234 233 236 236 237 239 238 235 230 225 222 222 223 225
254 253 253 249 242 239 239 240 238 238 238 237 237 236 232 224 219 217 219 221 221 222
257 253 249 248 244 238 236 236 235 234 235 236 235 231 222 217 216 217 218 219 221 226
262 257 256 252 248 243 237 235 233 232 231 229 226 224 223 223 220 217 217 220 223 228
257 257 253 249 245 241 238 234 232 230 226 224 222 222 224 223 218 217 218 220 223 231
252 250 250 248 246 242 236 232 230 227 224 222 222 222 221 221 218 216 216 220 221 221
260 255 251 247 244 240 235 233 230 226 224 224 223 223 222 220 219 218 221 219 218 221
264 257 252 247 242 238 233 229 227 225 224 223 222 222 222 219 220 223 220 217 217 220
Wind_Speed_850mb
62 66 68 67 66 65 64 62 61 57 54 52 52 48 45 46 49 47 46 44 45 42
60 60 59 57 57 58 58 60 60 55 50 49 48 47 47 46 46 47 48 46 44 37
47 47 49 51 53 52 49 46 46 46 46 44 43 41 41 44 43 46 43 44 44 43
40 42 43 42 39 37 36 36 38 37 33 34 37 44 48 41 47 46 45 47 41 38
34 33 33 33 33 33 33 34 32 30 35 39 42 43 42 43 46 46 43 38 36 33
32 32 32 33 34 35 36 37 38 40 43 45 45 45 45 48 46 41 38 36 35 32
33 32 32 33 35 36 38 41 43 43 45 47 48 49 48 45 43 42 40 38 36 32
36 35 35 37 39 41 43 45 46 47 46 48 49 49 47 45 44 42 40 37 34 31
47 46 44 44 46 47 50 53 53 52 50 50 50 50 48 45 43 42 39 36 34 30
55 54 52 51 54 56 56 55 54 52 52 52 50 49 47 45 43 42 40 38 34 29
66 64 64 64 63 61 59 57 55 53 53 54 54 52 50 48 47 46 43 38 34 32
77 76 74 72 69 67 63 61 60 58 58 58 57 55 54 53 53 49 46 42 39 37
74 79 81 79 74 69 66 64 64 63 62 60 59 57 56 56 54 52 49 44 40 38
67 74 79 79 75 72 71 70 70 69 67 66 63 59 58 58 57 53 49 46 43 38
Wind_Direction_850mb
234 236 240 244 247 247 250 253 254 253 256 249 246 246 244 242 244 246 256 264 270 263
232 235 240 243 246 250 250 252 255 253 247 243 242 240 244 248 245 253 257 262 271 251
232 236 241 244 248 250 250 248 246 243 241 241 235 241 248 247 249 251 255 261 262 251
235 237 241 243 244 244 241 239 236 238 235 238 243 243 254 248 247 248 254 259 245 247
239 236 240 240 238 238 238 236 235 228 230 233 242 243 238 243 246 247 246 241 238 238
240 241 238 237 238 237 235 230 228 228 233 234 236 240 244 243 242 236 231 228 226 228
245 244 244 243 242 240 237 234 234 233 236 236 237 239 238 235 230 225 222 222 223 225
254 253 253 249 242 239 239 240 238 238 238 237 237 236 232 224 219 217 219 221 221 222
257 253 249 248 244 238 236 236 235 234 235 236 235 231 222 217 216 217 218 219 221 226
262 257 256 252 248 243 237 235 233 232 231 229 226 224 223 223 220 217 217 220 223 228
257 257 253 249 245 241 238 234 232 230 226 224 222 222 224 223 218 217 218 220 223 231
252 250 250 248 246 242 236 232 230 227 224 222 222 222 221 221 218 216 216 220 221 221
260 255 251 247 244 240 235 233 230 226 224 224 223 223 222 220 219 218 221 219 218 221
264 257 252 247 242 238 233 229 227 225 224 223 222 222 222 219 220 223 220 217 217 220